Home > Weather > Västerås > Past weeks

Flag for Sweden Weather for the Past 2 Weeks in Västerås, Sweden

Now
48 °F

Passing clouds.


Feels Like: 46 °F
Forecast: 43 / 61 °F
Wind: 5 mph from Southwest

Location: Vasteras / Hasslo

Current Time: May 4, 2016 at 8:28:13 AM

Latest Report: May 4, 2016 at 7:20 AM


Visibility: N/A

Pressure: 30.15 "Hg

Humidity: 76%

Dew Point: 41 °F

Location of VästeråsLocation

Historic Weather in Västerås — Graph

°F

Västerås Temperature Yesterday

Maximum temperature yesterday: 66 °F (at 3:50 PM)
Minimum temperature yesterday: 39 °F (at 1:50 AM)
Average temperature yesterday: 53 °F

High & Low Weather Summary for the Past Weeks

 TemperatureHumidityPressure
High66 °F (May 3, 3:50 PM)100% (Apr 21, 11:20 PM)30.33 "Hg (Apr 21, 11:20 PM)
Low27 °F (Apr 25, 2:20 AM)20% (May 2, 2:50 PM)29.47 "Hg (Apr 19, 7:20 AM)
Average43 °F69%29.94 "Hg
* Reported Apr 19 7:20 AM — May 4 7:20 AM, Västerås, Weather by CustomWeather, © 2016

Note: Actual official high and low records may vary slightly from our data, if they occured in-between our weather recording intervals... More about our weather records

Advertising

Västerås Weather History for the Previous 24 Hours

Scroll right to see more
 ConditionsComfort  
Time TempWeatherWind HumidityBarometerVisibility
7:20 AM
Wed, May 4
48 °FPassing clouds.5 mph76%30.15 "HgN/A
6:20 AM41 °FPassing clouds.3 mph87%30.15 "HgN/A
5:50 AM39 °FChilly.2 mph81%30.12 "HgN/A
5:20 AM37 °FChilly.1 mph87%30.12 "HgN/A
4:50 AM37 °FChilly.2 mph87%30.12 "HgN/A
4:20 AM37 °FChilly.No wind87%30.09 "HgN/A
3:50 AM39 °FChilly.2 mph81%30.09 "HgN/A
3:20 AM41 °FQuite cool.No wind76%30.09 "HgN/A
2:50 AM39 °FChilly.2 mph81%30.09 "HgN/A
1:50 AM43 °FQuite cool.1 mph76%30.09 "HgN/A
12:50 AM45 °FQuite cool.3 mph71%30.09 "HgN/A
11:50 PM
Tue, May 3
45 °FQuite cool.3 mph66%30.09 "HgN/A
11:20 PM50 °FCool.6 mph58%30.07 "HgN/A
10:50 PM50 °FCool.5 mph54%30.07 "HgN/A
10:20 PM52 °FCool.3 mph50%30.07 "HgN/A
9:50 PM52 °FPassing clouds.3 mph50%30.04 "HgN/A
9:20 PM52 °FPassing clouds.5 mph54%30.04 "HgN/A
8:50 PM55 °FSunny.10 mph47%30.04 "Hg10 mi
8:20 PM59 °FSunny.13 mph42%30.04 "Hg10 mi
7:50 PM61 °FSunny.12 mph45%30.01 "Hg10 mi
7:20 PM63 °FSunny.12 mph42%30.01 "Hg10 mi
6:50 PM64 °FSunny.10 mph40%30.01 "Hg10 mi
6:20 PM64 °FSunny.9 mph40%30.01 "Hg10 mi
5:50 PM64 °FPassing clouds.7 mph43%30.01 "HgN/A
5:20 PM66 °FSunny.9 mph35%30.01 "Hg10 mi
4:50 PM64 °FSunny.7 mph40%30.01 "Hg10 mi
4:20 PM64 °FPassing clouds.8 mph40%30.04 "HgN/A
3:50 PM66 °FPassing clouds.7 mph35%30.04 "HgN/A
3:20 PM64 °FPassing clouds.6 mph40%30.04 "HgN/A
2:50 PM64 °FPassing clouds.7 mph40%30.04 "HgN/A
2:20 PM64 °FPassing clouds.7 mph40%30.04 "HgN/A
1:20 PM63 °FPassing clouds.6 mph45%30.04 "HgN/A
12:50 PM61 °FPassing clouds.6 mph48%30.07 "HgN/A
12:20 PM61 °FPassing clouds.5 mph48%30.07 "HgN/A
11:50 AM61 °FPassing clouds.6 mph48%30.07 "HgN/A
11:20 AM59 °FPassing clouds.6 mph48%30.07 "HgN/A
10:50 AM59 °FPassing clouds.5 mph45%30.07 "HgN/A
10:20 AM55 °FSunny.3 mph51%30.07 "Hg10 mi
9:50 AM55 °FPassing clouds.5 mph51%30.07 "HgN/A
9:20 AM54 °FPassing clouds.5 mph58%30.07 "HgN/A
8:50 AM52 °FPassing clouds.5 mph62%30.07 "HgN/A
8:20 AM50 °FPassing clouds.3 mph67%30.07 "HgN/A
Weather by CustomWeather, © 2016

See weather overviewHow to use our weather pages